| time (UTC) | temp F | wind direction | speed MPH | gust MPH | rain 1hr in | rain 24hr in | rain mn in | humidity % | barometer mb |
| 20260903195824 | 85 | 173 | 3.0 | 9.0 | 0.00 | 0.00 | 0.00 | 70 | 1007.8 |
| 20260903195554 | 84 | 71 | 3.0 | 9.0 | 0.00 | 0.00 | 0.00 | 74 | 1007.9 |
| 20260903194823 | 83 | 119 | 2.0 | 7.0 | 0.00 | 0.00 | 0.00 | 74 | 1008.3 |
| 20260903194811 | 81 | 153 | 3.0 | 7.0 | 0.00 | 0.00 | 0.00 | 77 | 1008.5 |
| 20260903193823 | 80 | 187 | 4.0 | 8.0 | 0.00 | 0.00 | 0.00 | 79 | 1008.4 |
| 20260903193323 | 79 | 136 | 4.0 | 8.0 | 0.00 | 0.00 | 0.00 | 80 | 1008.3 |
| 20260903192824 | 79 | 140 | 4.0 | 9.0 | 0.00 | 0.00 | 0.00 | 80 | 1008.3 |
| 20260903192324 | 79 | 166 | 5.0 | 9.0 | 0.00 | 0.00 | 0.00 | 80 | 1008.2 |
| 20260903191823 | 79 | 148 | 5.0 | 10.0 | 0.00 | 0.00 | 0.00 | 79 | 1008.1 |
| 20260903191322 | 79 | 139 | 6.0 | 10.0 | 0.00 | 0.00 | 0.00 | 78 | 1007.8 |
| 20260903190821 | 80 | 146 | 5.0 | 10.0 | 0.00 | 0.00 | 0.00 | 77 | 1008.3 |
| 20260903190319 | 80 | 148 | 4.0 | 9.0 | 0.00 | 0.00 | 0.00 | 77 | 1008.5 |
| 20260903190042 | 80 | 152 | 3.0 | 7.0 | 0.00 | 0.00 | 0.00 | 75 | 1008.9 |
| 20260903185320 | 81 | 146 | 2.0 | 6.0 | 0.00 | 0.00 | 0.00 | 74 | 1009.2 |
| 20260903184813 | 81 | 147 | 2.0 | 5.0 | 0.00 | 0.00 | 0.00 | 73 | 1008.8 |
| 20260903184314 | 81 | 155 | 3.0 | 6.0 | 0.00 | 0.00 | 0.00 | 72 | 1009.0 |
| 20260903184038 | 81 | 174 | 3.0 | 7.0 | 0.00 | 0.00 | 0.00 | 71 | 1009.0 |
| 20260903183313 | 82 | 161 | 2.0 | 7.0 | 0.00 | 0.00 | 0.00 | 70 | 1009.0 |
| 20260903182819 | 82 | 83 | 2.0 | 10.0 | 0.00 | 0.00 | 0.00 | 70 | 1009.0 |
| 20260903182313 | 82 | 117 | 2.0 | 10.0 | 0.00 | 0.00 | 0.00 | 69 | 1009.0 |
| 20260903181813 | 82 | 122 | 2.0 | 4.0 | 0.00 | 0.00 | 0.00 | 69 | 1009.0 |
| 20260903181310 | 82 | 146 | 2.0 | 5.0 | 0.00 | 0.00 | 0.00 | 68 | 1009.2 |
| 20260903181031 | 82 | 146 | 2.0 | 7.0 | 0.00 | 0.00 | 0.00 | 68 | 1009.0 |
| 20260903180309 | 82 | 150 | 3.0 | 7.0 | 0.00 | 0.00 | 0.00 | 69 | 1009.2 |
| 20260903175807 | 82 | 127 | 2.0 | 6.0 | 0.00 | 0.00 | 0.00 | 69 | 1008.9 |
| 20260903175309 | 82 | 159 | 2.0 | 6.0 | 0.00 | 0.00 | 0.00 | 69 | 1008.9 |
| 20260903174808 | 82 | 138 | 2.0 | 6.0 | 0.00 | 0.00 | 0.00 | 68 | 1008.9 |
| 20260903174306 | 83 | 153 | 3.0 | 7.0 | 0.00 | 0.00 | 0.00 | 67 | 1008.9 |
| 20260903173808 | 83 | 153 | 3.0 | 8.0 | 0.00 | 0.00 | 0.00 | 67 | 1008.9 |
| 20260903173307 | 84 | 148 | 4.0 | 8.0 | 0.00 | 0.00 | 0.00 | 66 | 1009.0 |
| 20260903172807 | 84 | 197 | 4.0 | 9.0 | 0.00 | 0.00 | 0.00 | 65 | 1009.1 |
| 20260903172307 | 84 | 150 | 4.0 | 9.0 | 0.00 | 0.00 | 0.00 | 66 | 1009.2 |
| 20260903171808 | 84 | 178 | 4.0 | 7.0 | 0.00 | 0.00 | 0.00 | 67 | 1009.4 |
| 20260903171309 | 84 | 108 | 4.0 | 10.0 | 0.00 | 0.00 | 0.00 | 67 | 1009.6 |
| 20260903170803 | 84 | 133 | 3.0 | 10.0 | 0.00 | 0.00 | 0.00 | 67 | 1009.6 |
| 20260903170303 | 84 | 168 | 2.0 | 4.0 | 0.00 | 0.00 | 0.00 | 65 | 1009.7 |
| 20260903165803 | 84 | 147 | 2.0 | 9.0 | 0.00 | 0.00 | 0.00 | 65 | 1009.7 |
| 20260903165305 | 84 | 162 | 3.0 | 9.0 | 0.00 | 0.00 | 0.00 | 64 | 1009.5 |
| 20260903164805 | 83 | 121 | 3.0 | 9.0 | 0.00 | 0.00 | 0.00 | 66 | 1009.6 |
| 20260903164304 | 83 | 130 | 3.0 | 9.0 | 0.00 | 0.00 | 0.00 | 66 | 1009.6 |
| 20260903164024 | 83 | 157 | 3.0 | 8.0 | 0.00 | 0.00 | 0.00 | 67 | 1009.6 |
| 20260903163533 | 83 | 142 | 3.0 | 8.0 | 0.00 | 0.00 | 0.00 | 66 | 1009.6 |
| 20260903162802 | 83 | 167 | 3.0 | 7.0 | 0.00 | 0.00 | 0.00 | 68 | 1009.7 |
| 20260903162306 | 82 | 134 | 3.0 | 7.0 | 0.00 | 0.00 | 0.00 | 71 | 1009.6 |
| 20260903161804 | 81 | 147 | 2.0 | 7.0 | 0.00 | 0.00 | 0.00 | 71 | 1009.5 |
| 20260903161304 | 81 | 132 | 2.0 | 7.0 | 0.00 | 0.00 | 0.00 | 70 | 1009.5 |
| 20260903160805 | 81 | 76 | 2.0 | 7.0 | 0.00 | 0.00 | 0.00 | 69 | 1009.4 |
| 20260903160526 | 81 | 136 | 3.0 | 6.0 | 0.00 | 0.00 | 0.00 | 71 | 1009.5 |
| 20260903155803 | 81 | 98 | 4.0 | 9.0 | 0.00 | 0.00 | 0.00 | 70 | 1009.3 |
| 20260903155306 | 81 | 165 | 4.0 | 9.0 | 0.00 | 0.00 | 0.00 | 70 | 1009.5 |
| 20260903155030 | 81 | 131 | 3.0 | 9.0 | 0.00 | 0.00 | 0.00 | 71 | 1009.5 |
| 20260903154304 | 80 | 132 | 3.0 | 9.0 | 0.00 | 0.00 | 0.00 | 72 | 1009.6 |
| 20260903154029 | 80 | 140 | 3.0 | 8.0 | 0.00 | 0.00 | 0.00 | 72 | 1009.6 |
| 20260903153303 | 80 | 169 | 3.0 | 11.0 | 0.00 | 0.00 | 0.00 | 72 | 1009.7 |
| 20260903153025 | 80 | 139 | 4.0 | 11.0 | 0.00 | 0.00 | 0.00 | 71 | 1009.8 |
| 20260903152524 | 80 | 148 | 3.0 | 8.0 | 0.00 | 0.00 | 0.00 | 71 | 1009.6 |
| 20260903151804 | 80 | 142 | 2.0 | 8.0 | 0.00 | 0.00 | 0.00 | 70 | 1009.5 |
| 20260903151524 | 80 | 154 | 2.0 | 6.0 | 0.00 | 0.00 | 0.00 | 71 | 1009.4 |
| 20260903150804 | 81 | 120 | 2.0 | 6.0 | 0.00 | 0.00 | 0.00 | 69 | 1009.3 |
| 20260903150303 | 81 | 151 | 2.0 | 7.0 | 0.00 | 0.00 | 0.00 | 69 | 1009.4 |
| 20260903145801 | 81 | 175 | 2.0 | 7.0 | 0.00 | 0.00 | 0.00 | 69 | 1009.4 |
| 20260903145300 | 81 | 138 | 3.0 | 8.0 | 0.00 | 0.00 | 0.00 | 70 | 1009.5 |
| 20260903144801 | 81 | 128 | 3.0 | 8.0 | 0.00 | 0.00 | 0.00 | 71 | 1009.4 |
| 20260903144528 | 80 | 156 | 3.0 | 7.0 | 0.00 | 0.00 | 0.00 | 71 | 1009.4 |
| 20260903143800 | 80 | 141 | 3.0 | 7.0 | 0.00 | 0.00 | 0.00 | 73 | 1009.5 |
| 20260903143301 | 78 | 137 | 2.0 | 5.0 | 0.00 | 0.00 | 0.00 | 73 | 1009.6 |
| 20260903142801 | 78 | 88 | 2.0 | 5.0 | 0.00 | 0.00 | 0.00 | 75 | 1009.5 |
| 20260903142300 | 78 | 163 | 2.0 | 5.0 | 0.00 | 0.00 | 0.00 | 76 | 1009.4 |
| 20260903141801 | 77 | 149 | 2.0 | 5.0 | 0.00 | 0.00 | 0.00 | 76 | 1009.4 |
| 20260903141519 | 77 | 159 | 2.0 | 5.0 | 0.00 | 0.00 | 0.00 | 77 | 1009.4 |
| 20260903140759 | 76 | 143 | 2.0 | 5.0 | 0.00 | 0.00 | 0.00 | 79 | 1009.5 |
| 20260903140259 | 76 | 132 | 2.0 | 5.0 | 0.00 | 0.00 | 0.00 | 79 | 1009.6 |
| 20260903135800 | 75 | 145 | 3.0 | 6.0 | 0.00 | 0.00 | 0.00 | 80 | 1009.6 |
| 20260903135258 | 75 | 142 | 3.0 | 7.0 | 0.00 | 0.00 | 0.00 | 80 | 1009.8 |
| 20260903135015 | 75 | 148 | 2.0 | 7.0 | 0.00 | 0.00 | 0.00 | 82 | 1009.8 |
| 20260903134257 | 74 | 147 | 1.0 | 5.0 | 0.00 | 0.00 | 0.00 | 83 | 1009.7 |
| 20260903133756 | 74 | 268 | 2.0 | 6.0 | 0.00 | 0.00 | 0.00 | 84 | 1009.8 |
| 20260903133252 | 74 | 182 | 2.0 | 6.0 | 0.00 | 0.00 | 0.00 | 84 | 1009.9 |
| 20260903132753 | 74 | 184 | 1.0 | 5.0 | 0.00 | 0.00 | 0.00 | 84 | 1009.8 |
| 20260903132252 | 74 | 121 | 2.0 | 8.0 | 0.00 | 0.00 | 0.00 | 85 | 1009.8 |
| 20260903132016 | 73 | 151 | 3.0 | 8.0 | 0.00 | 0.00 | 0.00 | 86 | 1009.7 |
| 20260903131250 | 73 | 140 | 3.0 | 10.0 | 0.00 | 0.00 | 0.00 | 87 | 1009.6 |
| 20260903130749 | 73 | 132 | 3.0 | 10.0 | 0.00 | 0.00 | 0.00 | 87 | 1009.6 |
| 20260903130247 | 73 | 142 | 3.0 | 6.0 | 0.00 | 0.00 | 0.00 | 88 | 1009.7 |
| 20260903125744 | 73 | 163 | 3.0 | 6.0 | 0.00 | 0.00 | 0.00 | 89 | 1009.5 |
| 20260903125505 | 73 | 150 | 2.0 | 5.0 | 0.00 | 0.00 | 0.00 | 89 | 1009.4 |
| 20260903124743 | 73 | 140 | 2.0 | 5.0 | 0.00 | 0.00 | 0.00 | 89 | 1009.4 |
| 20260903124243 | 73 | 81 | 1.0 | 5.0 | 0.00 | 0.00 | 0.00 | 88 | 1009.4 |
| 20260903123743 | 73 | 118 | 1.0 | 3.0 | 0.00 | 0.00 | 0.00 | 88 | 1009.2 |
| 20260903123243 | 73 | 119 | 1.0 | 3.0 | 0.00 | 0.00 | 0.00 | 89 | 1009.2 |
| 20260903122743 | 73 | 123 | 1.0 | 4.0 | 0.00 | 0.00 | 0.00 | 89 | 1009.2 |
| 20260903122242 | 73 | 148 | 1.0 | 4.0 | 0.00 | 0.00 | 0.00 | 89 | 1009.2 |
| 20260903122013 | 74 | 144 | 2.0 | 5.0 | 0.00 | 0.00 | 0.00 | 89 | 1009.2 |
| 20260903121243 | 74 | 144 | 2.0 | 5.0 | 0.00 | 0.00 | 0.00 | 89 | 1009.2 |
| 20260903121004 | 74 | 152 | 1.0 | 3.0 | 0.00 | 0.00 | 0.00 | 89 | 1009.2 |
| 20260903120243 | 74 | 165 | 1.0 | 9.0 | 0.00 | 0.00 | 0.00 | 90 | 1009.3 |
| 20260903115744 | 74 | 196 | 2.0 | 9.0 | 0.00 | 0.00 | 0.00 | 90 | 1009.6 |
| 20260903115243 | 73 | 145 | 2.0 | 7.0 | 0.00 | 0.00 | 0.00 | 90 | 1009.4 |
| 20260903114747 | 73 | 170 | 2.0 | 5.0 | 0.00 | 0.00 | 0.00 | 90 | 1009.5 |
| 20260903114241 | 73 | 144 | 2.0 | 8.0 | 0.00 | 0.00 | 0.00 | 90 | 1009.5 |
| 20260903113734 | 73 | 153 | 2.0 | 8.0 | 0.00 | 0.00 | 0.00 | 90 | 1009.4 |
| 20260903113236 | 73 | 148 | 2.0 | 5.0 | 0.00 | 0.00 | 0.00 | 90 | 1009.3 |
| 20260903112733 | 73 | 161 | 2.0 | 5.0 | 0.00 | 0.00 | 0.00 | 90 | 1009.5 |
| 20260903112233 | 73 | 148 | 2.0 | 5.0 | 0.00 | 0.00 | 0.00 | 90 | 1009.3 |
| 20260903111730 | 73 | 115 | 2.0 | 4.0 | 0.00 | 0.00 | 0.00 | 90 | 1009.3 |
| 20260903111229 | 73 | 157 | 2.0 | 5.0 | 0.00 | 0.00 | 0.00 | 90 | 1009.4 |
| 20260903110727 | 73 | 156 | 2.0 | 5.0 | 0.00 | 0.00 | 0.00 | 90 | 1009.4 |
| 20260903110227 | 73 | 144 | 2.0 | 7.0 | 0.00 | 0.00 | 0.00 | 90 | 1009.4 |
| 20260903105728 | 73 | 144 | 2.0 | 9.0 | 0.00 | 0.00 | 0.00 | 90 | 1009.5 |
| 20260903105224 | 73 | 159 | 3.0 | 9.0 | 0.00 | 0.00 | 0.00 | 90 | 1009.7 |
| 20260903104726 | 73 | 161 | 3.0 | 7.0 | 0.00 | 0.00 | 0.00 | 90 | 1009.8 |
| 20260903104441 | 73 | 169 | 2.0 | 7.0 | 0.00 | 0.00 | 0.00 | 90 | 1009.6 |
| 20260903103721 | 73 | 171 | 2.0 | 6.0 | 0.00 | 0.00 | 0.00 | 90 | 1009.5 |
| 20260903103221 | 73 | 146 | 2.0 | 4.0 | 0.00 | 0.00 | 0.00 | 90 | 1009.6 |
| 20260903102722 | 73 | 69 | 2.0 | 4.0 | 0.00 | 0.00 | 0.00 | 89 | 1009.5 |
| 20260903102221 | 73 | 137 | 2.0 | 4.0 | 0.00 | 0.00 | 0.00 | 89 | 1009.4 |
| 20260903101751 | 73 | 155 | 2.0 | 5.0 | 0.00 | 0.00 | 0.00 | 89 | 1009.5 |
| 20260903101214 | 73 | 146 | 1.0 | 5.0 | 0.00 | 0.00 | 0.00 | 89 | 1009.5 |
| 20260903100715 | 73 | 158 | 1.0 | 4.0 | 0.00 | 0.00 | 0.00 | 89 | 1009.4 |
| 20260903100425 | 73 | 78 | 1.0 | 3.0 | 0.00 | 0.00 | 0.00 | 89 | 1009.3 |
| 20260903100316 | 73 | 146 | 1.0 | 3.0 | 0.00 | 0.00 | 0.00 | 89 | 1009.4 |
| 20260903095215 | 73 | 98 | 1.0 | 3.0 | 0.00 | 0.00 | 0.00 | 88 | 1009.3 |
| 20260903094716 | 73 | 100 | 0.0 | 3.0 | 0.00 | 0.00 | 0.00 | 88 | 1009.2 |
| 20260903094217 | 74 | 94 | 1.0 | 2.0 | 0.00 | 0.00 | 0.00 | 88 | 1009.2 |
| 20260903093713 | 74 | 88 | 1.0 | 2.0 | 0.00 | 0.00 | 0.00 | 88 | 1009.1 |
| 20260903093429 | 74 | 88 | 0.0 | 2.0 | 0.00 | 0.00 | 0.00 | 88 | 1009.3 |
| 20260903092709 | 74 | 90 | 0.0 | 3.0 | 0.00 | 0.00 | 0.00 | 88 | 1009.3 |
| 20260903092209 | 74 | 90 | 1.0 | 5.0 | 0.00 | 0.00 | 0.00 | 88 | 1009.3 |
| 20260903091930 | 74 | 73 | 2.0 | 6.0 | 0.00 | 0.00 | 0.00 | 87 | 1009.3 |
| 20260903091209 | 74 | 80 | 2.0 | 6.0 | 0.00 | 0.00 | 0.00 | 87 | 1009.2 |
| 20260903090933 | 74 | 87 | 2.0 | 5.0 | 0.00 | 0.00 | 0.00 | 87 | 1009.1 |
| 20260903090431 | 74 | 42 | 2.0 | 6.0 | 0.00 | 0.00 | 0.00 | 87 | 1009.0 |
| 20260903085722 | 74 | 70 | 3.0 | 7.0 | 0.00 | 0.00 | 0.00 | 87 | 1009.0 |
| 20260903085209 | 74 | 153 | 2.0 | 7.0 | 0.00 | 0.00 | 0.00 | 86 | 1009.1 |
| 20260903084710 | 74 | 81 | 2.0 | 5.0 | 0.00 | 0.00 | 0.00 | 86 | 1009.2 |
| 20260903084211 | 74 | 76 | 1.0 | 5.0 | 0.00 | 0.00 | 0.00 | 86 | 1009.2 |
| 20260903083710 | 74 | 80 | 1.0 | 4.0 | 0.00 | 0.00 | 0.00 | 86 | 1009.3 |
| 20260903083210 | 74 | 76 | 2.0 | 4.0 | 0.00 | 0.00 | 0.00 | 85 | 1009.2 |
| 20260903082709 | 74 | 77 | 2.0 | 4.0 | 0.00 | 0.00 | 0.00 | 85 | 1009.2 |
| 20260903082210 | 74 | 74 | 2.0 | 8.0 | 0.00 | 0.00 | 0.00 | 85 | 1009.4 |
| 20260903081707 | 74 | 79 | 3.0 | 8.0 | 0.00 | 0.00 | 0.00 | 85 | 1009.2 |
| 20260903081207 | 74 | 89 | 3.0 | 9.0 | 0.00 | 0.00 | 0.00 | 85 | 1009.2 |
| 20260903080710 | 74 | 80 | 3.0 | 9.0 | 0.00 | 0.00 | 0.00 | 85 | 1009.2 |
| 20260903080206 | 75 | 86 | 3.0 | 6.0 | 0.00 | 0.00 | 0.00 | 85 | 1009.3 |
| 20260903075703 | 75 | 87 | 2.0 | 6.0 | 0.00 | 0.00 | 0.00 | 85 | 1009.5 |
| 20260903075422 | 75 | 69 | 3.0 | 6.0 | 0.00 | 0.00 | 0.00 | 84 | 1009.5 |
| 20260903074658 | 75 | 87 | 3.0 | 6.0 | 0.00 | 0.00 | 0.00 | 84 | 1009.5 |
| 20260903074200 | 75 | 86 | 3.0 | 6.0 | 0.00 | 0.00 | 0.00 | 84 | 1009.5 |
| 20260903073653 | 75 | 69 | 3.0 | 6.0 | 0.00 | 0.00 | 0.00 | 84 | 1009.5 |
| 20260903073148 | 75 | 88 | 2.0 | 6.0 | 0.00 | 0.01 | 0.00 | 83 | 1009.5 |
| 20260903072649 | 75 | 76 | 3.0 | 6.0 | 0.00 | 0.01 | 0.00 | 83 | 1009.6 |
| 20260903072640 | 75 | 74 | 3.0 | 6.0 | 0.00 | 0.01 | 0.00 | 83 | 1009.5 |
| 20260903071646 | 75 | 65 | 3.0 | 7.0 | 0.00 | 0.02 | 0.00 | 83 | 1009.6 |
| 20260903071414 | 76 | 84 | 3.0 | 7.0 | 0.00 | 0.03 | 0.00 | 82 | 1009.7 |
| 20260903070647 | 76 | 71 | 3.0 | 6.0 | 0.00 | 0.03 | 0.00 | 82 | 1009.7 |
| 20260903070147 | 76 | 80 | 3.0 | 6.0 | 0.00 | 0.04 | 0.00 | 82 | 1009.8 |
| 20260903065648 | 76 | 90 | 3.0 | 6.0 | 0.00 | 0.04 | 0.00 | 82 | 1009.9 |
| 20260903065148 | 76 | 76 | 3.0 | 6.0 | 0.00 | 0.04 | 0.00 | 82 | 1009.8 |
| 20260903064647 | 76 | 78 | 3.0 | 6.0 | 0.00 | 0.04 | 0.00 | 81 | 1009.8 |
| 20260903064145 | 76 | 94 | 2.0 | 5.0 | 0.00 | 0.04 | 0.00 | 81 | 1009.7 |
| 20260903063646 | 76 | 85 | 1.0 | 6.0 | 0.00 | 0.04 | 0.00 | 81 | 1009.7 |
| 20260903063145 | 76 | 88 | 2.0 | 6.0 | 0.00 | 0.04 | 0.00 | 81 | 1009.8 |
| 20260903063130 | 76 | 90 | 3.0 | 6.0 | 0.00 | 0.04 | 0.00 | 80 | 1009.8 |
| 20260903062139 | 76 | 83 | 3.0 | 6.0 | 0.00 | 0.04 | 0.00 | 80 | 1009.9 |
| 20260903061641 | 77 | 79 | 3.0 | 6.0 | 0.00 | 0.04 | 0.00 | 80 | 1009.9 |
| 20260903061123 | 77 | 84 | 3.0 | 7.0 | 0.00 | 0.04 | 0.00 | 79 | 1009.9 |
| 20260903060623 | 77 | 65 | 3.0 | 8.0 | 0.00 | 0.04 | 0.00 | 79 | 1010.0 |
| 20260903060124 | 77 | 88 | 3.0 | 9.0 | 0.00 | 0.04 | 0.00 | 79 | 1009.9 |
| 20260903055624 | 77 | 79 | 3.0 | 9.0 | 0.00 | 0.04 | 0.00 | 79 | 1009.9 |
| 20260903055123 | 77 | 92 | 3.0 | 7.0 | 0.00 | 0.04 | 0.00 | 79 | 1009.9 |
| 20260903054622 | 77 | 72 | 3.0 | 7.0 | 0.00 | 0.04 | 0.00 | 78 | 1009.9 |
| 20260903054123 | 77 | 77 | 3.0 | 7.0 | 0.00 | 0.04 | 0.00 | 78 | 1009.9 |
| 20260903053623 | 77 | 92 | 4.0 | 8.0 | 0.00 | 0.04 | 0.00 | 78 | 1009.9 |
| 20260903053123 | 78 | 62 | 4.0 | 10.0 | 0.00 | 0.04 | 0.00 | 78 | 1009.8 |
| 20260903052624 | 78 | 97 | 4.0 | 10.0 | 0.00 | 0.04 | 0.00 | 78 | 1009.8 |
| 20260903052346 | 78 | 76 | 3.0 | 9.0 | 0.00 | 0.04 | 0.00 | 77 | 1009.8 |
| 20260903051847 | 78 | 86 | 3.0 | 8.0 | 0.00 | 0.04 | 0.00 | 77 | 1009.9 |
| 20260903051114 | 78 | 86 | 4.0 | 7.0 | 0.00 | 0.04 | 0.00 | 77 | 1009.9 |
| 20260903050613 | 78 | 79 | 4.0 | 8.0 | 0.00 | 0.04 | 0.00 | 77 | 1009.9 |
| 20260903050110 | 78 | 84 | 4.0 | 8.0 | 0.00 | 0.04 | 0.00 | 76 | 1009.9 |
| 20260903045611 | 78 | 73 | 4.0 | 7.0 | 0.00 | 0.04 | 0.04 | 76 | 1010.0 |
| 20260903045113 | 78 | 90 | 4.0 | 7.0 | 0.00 | 0.04 | 0.04 | 76 | 1010.2 |
| 20260903044612 | 78 | 80 | 4.0 | 8.0 | 0.00 | 0.04 | 0.04 | 76 | 1010.0 |
| 20260903044330 | 78 | 78 | 4.0 | 9.0 | 0.00 | 0.04 | 0.04 | 75 | 1010.0 |
| 20260903043611 | 78 | 95 | 4.0 | 9.0 | 0.00 | 0.04 | 0.04 | 75 | 1010.2 |
| 20260903043331 | 78 | 60 | 4.0 | 7.0 | 0.00 | 0.04 | 0.04 | 75 | 1010.3 |
| 20260903043055 | 78 | 86 | 3.0 | 7.0 | 0.00 | 0.04 | 0.04 | 75 | 1010.3 |
| 20260903042122 | 79 | 82 | 3.0 | 8.0 | 0.00 | 0.04 | 0.04 | 75 | 1010.3 |
| 20260903041829 | 79 | 87 | 4.0 | 8.0 | 0.00 | 0.04 | 0.04 | 75 | 1010.2 |
| 20260903041108 | 79 | 83 | 4.0 | 7.0 | 0.00 | 0.04 | 0.04 | 75 | 1010.2 |
| 20260903040608 | 79 | 87 | 4.0 | 9.0 | 0.00 | 0.04 | 0.04 | 75 | 1010.3 |
| 20260903040119 | 79 | 82 | 5.0 | 10.0 | 0.00 | 0.04 | 0.04 | 75 | 1010.3 |
| 20260903035601 | 79 | 88 | 5.0 | 11.0 | 0.00 | 0.04 | 0.04 | 75 | 1010.3 |
| 20260903035054 | 79 | 100 | 5.0 | 11.0 | 0.00 | 0.04 | 0.04 | 75 | 1010.4 |
| 20260903034552 | 79 | 77 | 4.0 | 10.0 | 0.00 | 0.04 | 0.04 | 75 | 1010.4 |
| 20260903034049 | 79 | 90 | 4.0 | 10.0 | 0.00 | 0.04 | 0.04 | 75 | 1010.4 |
| 20260903033547 | 79 | 150 | 3.0 | 10.0 | 0.00 | 0.04 | 0.04 | 74 | 1010.4 |
| 20260903033048 | 79 | 64 | 3.0 | 9.0 | 0.00 | 0.04 | 0.04 | 74 | 1010.4 |
| 20260903032547 | 79 | 82 | 3.0 | 10.0 | 0.00 | 0.04 | 0.04 | 74 | 1010.4 |
| 20260903032305 | 79 | 68 | 4.0 | 10.0 | 0.00 | 0.04 | 0.04 | 74 | 1010.5 |
| 20260903031548 | 79 | 76 | 3.0 | 9.0 | 0.00 | 0.04 | 0.04 | 73 | 1010.4 |
| 20260903031047 | 79 | 92 | 3.0 | 8.0 | 0.00 | 0.04 | 0.04 | 72 | 1010.4 |
| 20260903031026 | 79 | 80 | 2.0 | 6.0 | 0.00 | 0.04 | 0.04 | 72 | 1010.4 |
| 20260903030307 | 79 | 78 | 3.0 | 7.0 | 0.00 | 0.04 | 0.04 | 71 | 1010.5 |
| 20260903025542 | 79 | 30 | 2.0 | 7.0 | 0.00 | 0.04 | 0.04 | 71 | 1010.4 |
| 20260903025042 | 79 | 90 | 2.0 | 7.0 | 0.00 | 0.04 | 0.04 | 70 | 1010.3 |
| 20260903024542 | 79 | 87 | 1.0 | 6.0 | 0.00 | 0.04 | 0.04 | 70 | 1010.4 |
| 20260903024301 | 79 | 101 | 2.0 | 5.0 | 0.00 | 0.04 | 0.04 | 70 | 1010.3 |
| 20260903023541 | 79 | 67 | 1.0 | 5.0 | 0.00 | 0.04 | 0.04 | 69 | 1010.3 |
| 20260903023253 | 80 | 92 | 1.0 | 3.0 | 0.00 | 0.04 | 0.04 | 69 | 1010.2 |
| 20260903022530 | 80 | 92 | 1.0 | 3.0 | 0.00 | 0.04 | 0.04 | 68 | 1010.2 |
| 20260903022032 | 80 | 92 | 1.0 | 5.0 | 0.00 | 0.04 | 0.04 | 68 | 1010.2 |
| 20260903021807 | 80 | 76 | 1.0 | 5.0 | 0.00 | 0.04 | 0.04 | 68 | 1010.2 |
| 20260903021044 | 80 | 69 | 1.0 | 5.0 | 0.00 | 0.04 | 0.04 | 67 | 1010.3 |
| 20260903020747 | 80 | 78 | 1.0 | 6.0 | 0.00 | 0.04 | 0.04 | 67 | 1010.3 |
| 20260903020025 | 80 | 76 | 2.0 | 6.0 | 0.00 | 0.04 | 0.04 | 67 | 1010.3 |
| 20260903015522 | 80 | 96 | 1.0 | 5.0 | 0.00 | 0.04 | 0.04 | 67 | 1010.3 |
| 20260903015248 | 80 | 114 | 0.0 | 5.0 | 0.00 | 0.04 | 0.04 | 67 | 1010.2 |
| 20260903014522 | 80 | 97 | 1.0 | 5.0 | 0.00 | 0.04 | 0.04 | 67 | 1010.0 |
| 20260903014023 | 81 | 55 | 0.0 | 5.0 | 0.00 | 0.04 | 0.04 | 68 | 1009.9 |
| 20260903013523 | 81 | 158 | 0.0 | 1.0 | 0.00 | 0.04 | 0.04 | 67 | 1009.9 |
| 20260903013033 | 81 | 158 | 0.0 | 0.0 | 0.00 | 0.04 | 0.04 | 67 | 1009.9 |
| 20260903012519 | 81 | 158 | 0.0 | 0.0 | 0.00 | 0.04 | 0.04 | 67 | 1009.8 |
| 20260903012238 | 82 | 158 | 0.0 | 0.0 | 0.00 | 0.04 | 0.04 | 67 | 1009.7 |
| 20260903011516 | 82 | 158 | 0.0 | 0.0 | 0.00 | 0.04 | 0.04 | 66 | 1009.6 |
| 20260903011018 | 82 | 158 | 0.0 | 0.0 | 0.00 | 0.04 | 0.04 | 65 | 1009.6 |
| 20260903010516 | 83 | 158 | 0.0 | 0.0 | 0.00 | 0.04 | 0.04 | 64 | 1009.6 |
| 20260903010009 | 83 | 158 | 0.0 | 0.0 | 0.00 | 0.04 | 0.04 | 64 | 1009.5 |
| 20260903005006 | 84 | 158 | 0.0 | 0.0 | 0.00 | 0.04 | 0.04 | 62 | 1009.5 |
| 20260903004504 | 84 | 158 | 0.0 | 0.0 | 0.00 | 0.04 | 0.04 | 61 | 1009.5 |
| 20260903004003 | 85 | 158 | 0.0 | 2.0 | 0.00 | 0.04 | 0.04 | 61 | 1009.6 |
| 20260903003501 | 85 | 158 | 0.0 | 2.0 | 0.00 | 0.04 | 0.04 | 60 | 1009.6 |
| 20260903002959 | 86 | 158 | 0.0 | 4.0 | 0.00 | 0.04 | 0.04 | 58 | 1009.6 |
| 20260903002731 | 86 | 158 | 0.0 | 4.0 | 0.00 | 0.04 | 0.04 | 57 | 1009.6 |
| 20260903002448 | 86 | 159 | 0.0 | 2.0 | 0.00 | 0.04 | 0.04 | 57 | 1009.5 |
| 20260903001456 | 87 | 157 | 0.0 | 1.0 | 0.00 | 0.04 | 0.04 | 57 | 1009.6 |
| 20260903000957 | 87 | 157 | 1.0 | 4.0 | 0.00 | 0.04 | 0.04 | 56 | 1009.5 |
| 20260903000458 | 87 | 157 | 1.0 | 4.0 | 0.00 | 0.04 | 0.04 | 55 | 1009.5 |
| 20260902235954 | 87 | 153 | 2.0 | 4.0 | 0.00 | 0.04 | 0.04 | 56 | 1009.5 |
| 20260902235452 | 87 | 165 | 2.0 | 4.0 | 0.00 | 0.04 | 0.04 | 55 | 1009.5 |
| 20260902234953 | 87 | 166 | 2.0 | 4.0 | 0.00 | 0.04 | 0.04 | 55 | 1009.5 |
| 20260902234452 | 87 | 103 | 2.0 | 5.0 | 0.00 | 0.04 | 0.04 | 54 | 1009.6 |
| 20260902233951 | 88 | 156 | 2.0 | 5.0 | 0.00 | 0.04 | 0.04 | 54 | 1009.6 |
| 20260902233443 | 88 | 152 | 1.0 | 4.0 | 0.00 | 0.04 | 0.04 | 54 | 1009.6 |
| 20260902233202 | 88 | 108 | 1.0 | 4.0 | 0.00 | 0.04 | 0.04 | 54 | 1009.6 |
| 20260902232706 | 88 | 121 | 1.0 | 4.0 | 0.00 | 0.04 | 0.04 | 52 | 1009.6 |
| 20260902231939 | 88 | 142 | 1.0 | 3.0 | 0.00 | 0.04 | 0.04 | 53 | 1009.7 |
| 20260902231434 | 88 | 109 | 1.0 | 3.0 | 0.00 | 0.04 | 0.04 | 52 | 1009.7 |
| 20260902230937 | 88 | 127 | 1.0 | 3.0 | 0.00 | 0.04 | 0.04 | 52 | 1009.6 |
| 20260902230434 | 88 | 72 | 2.0 | 5.0 | 0.00 | 0.04 | 0.04 | 52 | 1009.6 |
| 20260902225937 | 88 | 153 | 1.0 | 5.0 | 0.00 | 0.04 | 0.04 | 52 | 1009.6 |
| 20260902225655 | 88 | 175 | 1.0 | 5.0 | 0.00 | 0.04 | 0.04 | 52 | 1009.6 |
| 20260902224934 | 88 | 158 | 2.0 | 5.0 | 0.00 | 0.04 | 0.04 | 53 | 1009.6 |
| 20260902224653 | 87 | 130 | 1.0 | 4.0 | 0.00 | 0.04 | 0.04 | 52 | 1009.6 |
| 20260902224420 | 87 | 304 | 0.0 | 2.0 | 0.00 | 0.04 | 0.04 | 52 | 1009.6 |
| 20260902223427 | 87 | 300 | 1.0 | 5.0 | 0.00 | 0.04 | 0.04 | 51 | 1009.7 |
| 20260902222928 | 88 | 300 | 1.0 | 5.0 | 0.00 | 0.04 | 0.04 | 50 | 1009.6 |
| 20260902222430 | 88 | 42 | 1.0 | 2.0 | 0.00 | 0.04 | 0.04 | 53 | 1009.7 |
| 20260902221928 | 87 | 36 | 2.0 | 6.0 | 0.00 | 0.04 | 0.04 | 51 | 1009.7 |
| 20260902221428 | 87 | 35 | 2.0 | 6.0 | 0.00 | 0.04 | 0.04 | 51 | 1009.7 |
| 20260902221152 | 87 | 348 | 1.0 | 5.0 | 0.00 | 0.04 | 0.04 | 51 | 1009.7 |
| 20260902220425 | 87 | 344 | 2.0 | 7.0 | 0.00 | 0.04 | 0.04 | 52 | 1009.7 |
| 20260902215924 | 87 | 88 | 2.0 | 7.0 | 0.00 | 0.04 | 0.04 | 51 | 1009.8 |
| 20260902215425 | 88 | 70 | 1.0 | 5.0 | 0.00 | 0.04 | 0.04 | 52 | 1009.8 |
| 20260902214925 | 88 | 90 | 1.0 | 5.0 | 0.00 | 0.04 | 0.04 | 52 | 1009.8 |
| 20260902214423 | 88 | 240 | 1.0 | 5.0 | 0.00 | 0.04 | 0.04 | 52 | 1009.8 |
| 20260902213921 | 88 | 105 | 1.0 | 4.0 | 0.00 | 0.04 | 0.04 | 52 | 1009.8 |
| 20260902213422 | 87 | 158 | 2.0 | 4.0 | 0.00 | 0.04 | 0.04 | 53 | 1009.8 |
| 20260902212920 | 87 | 213 | 2.0 | 5.0 | 0.00 | 0.04 | 0.04 | 52 | 1009.9 |
| 20260902212643 | 87 | 263 | 2.0 | 5.0 | 0.00 | 0.04 | 0.04 | 51 | 1010.0 |
| 20260902212539 | 87 | 228 | 2.0 | 7.0 | 0.00 | 0.04 | 0.04 | 52 | 1010.0 |
| 20260902211415 | 87 | 87 | 2.0 | 7.0 | 0.00 | 0.04 | 0.04 | 52 | 1009.9 |
| 20260902210918 | 87 | 87 | 1.0 | 6.0 | 0.00 | 0.04 | 0.04 | 52 | 1009.9 |
| 20260902210856 | 87 | 74 | 1.0 | 3.0 | 0.00 | 0.04 | 0.04 | 53 | 1009.9 |
| 20260902210140 | 87 | 38 | 1.0 | 6.0 | 0.00 | 0.04 | 0.04 | 53 | 1010.0 |
| 20260902205637 | 86 | 337 | 2.0 | 6.0 | 0.00 | 0.04 | 0.04 | 53 | 1010.0 |
| 20260902205129 | 86 | 42 | 3.0 | 7.0 | 0.00 | 0.04 | 0.04 | 55 | 1010.0 |
| 20260902204415 | 86 | 169 | 2.0 | 7.0 | 0.00 | 0.04 | 0.04 | 55 | 1010.0 |
| 20260902203915 | 86 | 68 | 2.0 | 5.0 | 0.00 | 0.04 | 0.04 | 54 | 1010.0 |
| 20260902203415 | 86 | 346 | 2.0 | 5.0 | 0.00 | 0.04 | 0.04 | 54 | 1010.2 |
| 20260902202915 | 86 | 226 | 2.0 | 7.0 | 0.00 | 0.04 | 0.04 | 56 | 1010.3 |
| 20260902202414 | 86 | 81 | 3.0 | 7.0 | 0.00 | 0.04 | 0.04 | 54 | 1010.3 |
| 20260902201914 | 86 | 149 | 3.0 | 5.0 | 0.00 | 0.04 | 0.04 | 55 | 1010.4 |
| 20260902201417 | 86 | 266 | 3.0 | 5.0 | 0.00 | 0.04 | 0.04 | 55 | 1010.4 |
| 20260902201131 | 86 | 139 | 3.0 | 7.0 | 0.00 | 0.04 | 0.04 | 56 | 1010.4 |
| 20260902200635 | 85 | 148 | 3.0 | 7.0 | 0.00 | 0.04 | 0.04 | 55 | 1010.6 |